Temp
64 64 64 64 63 64 64 64 64 64 63 64 64 64 64 64 64 65 67 70 70 72 70 72 71 70 69 64 64 60 50 47 51 53 54 60 58 62 64 62 61 61 57 61 64
63 63 63 63 63 63 63 64 63 63 63 63 64 64 64 63 64 67 70 72 72 71 70 67 66 67 62 61 61 55 48 51 56 56 54 59 61 61 58 60 56 56 59 62 62
62 62 63 63 63 63 63 63 63 63 63 63 63 63 63 61 64 65 71 72 72 70 70 70 70 67 59 60 57 56 52 56 59 60 61 59 58 62 57 54 54 57 57 59 58
62 62 62 62 62 63 63 63 63 63 63 63 63 63 62 63 54 67 70 71 71 70 70 68 66 59 56 55 60 53 60 61 61 60 59 57 61 57 58 58 59 58 59 57 56
61 61 61 61 62 62 62 63 63 62 62 63 63 63 64 61 64 69 68 69 70 70 67 66 62 60 54 56 58 53 57 61 61 60 57 60 57 56 54 55 57 59 59 55 54
60 60 60 61 61 62 62 62 63 62 62 63 63 63 61 54 71 71 70 68 70 68 66 66 62 63 58 57 54 56 57 58 61 60 59 57 55 56 55 55 55 57 54 53 54
60 60 60 60 61 61 61 62 62 62 62 63 64 65 59 62 71 71 71 67 68 67 65 67 65 62 59 55 59 57 53 56 58 59 57 58 53 54 56 55 54 54 52 53 53
60 60 60 60 60 61 61 62 62 62 62 63 64 60 57 67 66 70 70 67 69 69 67 66 67 62 59 58 58 52 48 44 55 56 56 57 46 57 55 54 52 51 49 51 52
59 59 60 60 60 60 61 61 61 62 63 64 58 56 56 67 65 68 68 66 66 66 66 72 65 58 57 51 46 45 41 44 51 56 54 52 48 52 54 53 51 49 49 50 50
59 59 59 60 60 60 60 61 61 60 62 65 66 53 60 60 63 66 66 68 63 62 61 59 55 49 48 45 39 42 41 46 46 53 50 48 48 52 54 52 51 50 49 49 48
59 59 60 60 60 61 59 57 55 52 55 55 56 58 60 61 65 62 65 63 62 56 49 51 45 44 49 49 50 47 45 44 51 56 51 48 48 52 53 50 48 49 49 49 48
59 60 60 60 60 61 57 53 56 57 50 60 60 60 64 63 56 60 65 57 53 48 50 46 42 53 54 52 51 50 47 45 49 54 50 49 48 52 52 51 54 54 52 48 45
59 59 59 60 60 58 55 58 64 61 48 55 60 59 60 62 57 56 61 57 52 48 48 43 49 55 52 49 49 47 45 45 46 50 48 46 44 47 53 53 53 56 53 51 46
59 59 59 59 56 59 56 63 64 62 41 49 54 57 59 59 53 61 63 58 53 49 50 46 54 52 48 47 50 43 51 50 48 42 36 44 36 45 49 51 50 54 48 47 46
57 58 59 61 57 55 61 64 63 58 32 51 51 60 58 56 52 52 58 56 49 50 50 45 47 46 45 48 50 46 49 46 44 40 36 38 35 38 46 49 54 49 45 44 45
57 57 58 58 57 57 59 60 56 42 33 45 49 47 48 51 51 52 53 56 54 48 47 47 49 49 50 48 50 50 46 44 40 38 29 38 39 39 44 51 46 44 45 45 43
57 57 56 58 54 57 58 54 40 32 48 43 43 46 46 45 46 48 46 44 42 37 37 43 46 48 50 45 45 45 40 30 27 26 28 38 36 45 49 49 49 44 45 45 46
57 57 56 58 57 57 54 46 33 41 42 50 48 46 42 45 44 45 42 39 45 42 38 36 36 45 49 49 42 40 41 30 22 24 27 34 30 41 47 46 48 48 48 45 44
56 54 54 56 57 57 49 38 35 41 49 47 47 43 43 46 44 42 39 40 45 46 40 37 39 44 46 48 49 39 36 46 34 19 23 31 37 45 42 42 42 42 44 43 42
52 50 49 56 57 53 45 40 41 48 51 50 43 46 39 43 43 41 39 45 46 50 52 45 37 41 42 47 44 43 45 33 35 23 21 29 31 39 39 41 41 40 41 42 41
50 46 52 57 56 47 37 42 43 50 52 45 44 44 46 44 45 40 42 47 50 48 54 46 41 34 40 38 39 39 37 38 39 32 24 22 31 42 45 43 41 42 43 42 41
49 40 53 56 43 43 38 41 47 47 51 47 47 45 45 45 41 43 41 46 51 51 44 47 41 28 35 41 44 42 42 43 35 28 29 29 36 42 41 44 43 42 44 43 42
44 44 53 53 36 37 40 43 46 44 46 45 43 47 50 45 40 44 44 50 52 50 45 46 36 32 33 39 41 39 41 46 42 36 33 29 34 43 42 42 42 41 41 42 41
42 36 44 46 45 41 40 40 40 46 46 47 45 46 44 42 45 40 41 48 49 49 47 46 37 34 34 38 39 32 36 41 43 34 32 36 38 40 41 43 42 41 42 42 42
41 38 42 35 38 41 43 42 39 39 45 47 42 44 42 40 40 40 42 43 43 45 46 44 34 35 38 41 38 36 34 38 38 39 33 39 38 46 46 48 47 43 42 42 41
37 38 40 40 41 38 38 40 40 42 43 41 42 44 44 40 42 38 43 41 39 39 40 41 34 34 34 38 38 34 36 39 39 39 40 40 39 48 50 47 41 42 43 42 42
40 42 38 37 36 36 36 35 38 43 44 47 45 42 41 45 43 46 45 44 44 39 38 35 34 32 31 34 33 30 34 36 38 42 39 35 42 48 43 43 44 41 43 43 43
MSLP
1019.00 1018.89 1018.86 1018.96 1018.87 1018.75 1018.76 1018.63 1018.51 1018.43 1018.20 1018.00 1017.62 1017.30 1016.98 1016.52 1015.77 1015.86 1015.65 1015.39 1015.11 1014.91 1014.90 1014.60 1014.29 1014.09 1014.13 1014.53 1014.72 1015.03 1016.05 1016.30 1015.69 1015.15 1015.22 1014.91 1015.03 1014.98 1015.33 1015.92 1016.82 1017.81 1018.47 1018.99 1019.01
1018.88 1018.99 1018.90 1018.87 1018.96 1018.89 1018.76 1018.68 1018.56 1018.41 1018.20 1017.89 1017.60 1017.27 1017.07 1016.67 1016.23 1015.61 1015.36 1015.08 1014.94 1014.90 1014.96 1014.83 1014.52 1014.22 1014.51 1014.75 1015.00 1015.43 1016.31 1016.02 1015.65 1015.38 1015.37 1015.32 1015.31 1015.57 1015.90 1016.62 1017.79 1018.78 1019.10 1019.24 1019.34
1018.87 1018.92 1018.86 1018.85 1018.87 1018.80 1018.79 1018.60 1018.54 1018.35 1018.20 1017.95 1017.68 1017.17 1016.72 1016.43 1015.96 1015.46 1015.12 1015.08 1014.99 1014.96 1014.94 1014.70 1014.44 1014.40 1014.65 1014.81 1015.22 1015.56 1015.95 1015.81 1015.80 1015.63 1015.61 1015.62 1015.63 1015.79 1016.39 1017.35 1018.24 1018.72 1019.40 1019.63 1019.88
1018.81 1018.80 1018.81 1018.69 1018.81 1018.69 1018.74 1018.66 1018.50 1018.33 1018.12 1017.85 1017.42 1016.88 1016.22 1015.98 1015.99 1015.30 1015.17 1015.15 1015.12 1015.02 1014.90 1014.67 1014.61 1014.73 1014.95 1015.26 1015.28 1015.74 1015.66 1015.66 1015.71 1015.78 1015.85 1016.04 1016.09 1016.33 1016.85 1017.61 1018.34 1018.90 1019.48 1019.96 1020.41
1018.89 1018.81 1018.76 1018.79 1018.68 1018.71 1018.60 1018.57 1018.46 1018.28 1018.02 1017.65 1017.27 1016.82 1016.05 1015.94 1015.45 1015.19 1015.27 1015.27 1015.14 1015.07 1014.99 1014.87 1014.86 1014.97 1015.28 1015.46 1015.60 1015.85 1015.97 1015.78 1015.82 1015.98 1016.15 1016.36 1016.60 1017.01 1017.47 1018.23 1018.77 1019.10 1019.71 1020.37 1020.72
1018.92 1018.90 1018.81 1018.71 1018.64 1018.54 1018.44 1018.36 1018.24 1018.12 1017.93 1017.59 1017.20 1016.84 1016.73 1016.20 1014.97 1015.15 1015.25 1015.25 1015.26 1015.15 1015.03 1015.01 1015.23 1015.26 1015.47 1015.70 1015.96 1016.18 1016.29 1016.28 1016.13 1016.25 1016.38 1016.76 1017.06 1017.46 1017.64 1018.26 1019.09 1019.46 1020.09 1020.62 1020.89
1018.66 1018.76 1018.70 1018.60 1018.54 1018.34 1018.24 1018.20 1018.04 1017.93 1017.82 1017.57 1017.26 1017.07 1016.81 1015.78 1014.96 1015.11 1015.24 1015.26 1015.16 1015.21 1015.26 1015.23 1015.38 1015.51 1015.83 1016.12 1016.31 1016.43 1016.79 1016.64 1016.09 1016.14 1016.61 1017.00 1017.53 1017.33 1017.54 1018.45 1019.18 1019.77 1020.18 1020.66 1020.98
1018.34 1018.45 1018.52 1018.47 1018.42 1018.27 1018.09 1017.93 1017.83 1017.70 1017.62 1017.45 1017.33 1017.19 1016.29 1015.31 1015.22 1015.21 1015.27 1015.37 1015.30 1015.24 1015.41 1015.52 1015.50 1015.95 1016.29 1016.66 1016.74 1017.05 1017.26 1017.26 1016.14 1016.19 1016.78 1017.12 1017.14 1016.90 1017.40 1018.24 1019.13 1019.72 1020.27 1020.64 1021.08
1017.86 1018.10 1018.17 1018.18 1018.25 1018.20 1017.96 1017.68 1017.51 1017.42 1017.35 1017.23 1017.30 1017.09 1016.15 1015.39 1015.36 1015.19 1015.24 1015.48 1015.65 1015.75 1015.69 1015.74 1015.92 1016.60 1017.03 1017.56 1017.99 1017.86 1017.84 1017.51 1016.71 1016.24 1016.75 1017.35 1017.36 1017.19 1017.74 1018.32 1019.07 1019.50 1020.03 1020.43 1021.06
1017.38 1017.63 1017.80 1017.86 1017.98 1018.00 1017.84 1017.58 1017.28 1017.28 1017.13 1017.13 1017.09 1017.30 1015.93 1015.50 1015.35 1015.27 1015.40 1015.62 1015.85 1016.19 1016.36 1016.48 1016.86 1017.41 1017.86 1018.18 1018.50 1018.16 1018.19 1017.55 1017.03 1016.73 1016.88 1017.40 1017.12 1017.30 1017.69 1018.21 1018.58 1019.03 1019.49 1020.17 1020.68
1016.73 1017.09 1017.41 1017.40 1017.70 1017.88 1017.79 1017.56 1017.65 1017.53 1017.08 1015.98 1015.90 1015.65 1015.41 1015.70 1015.57 1015.57 1015.51 1015.85 1016.14 1016.62 1017.04 1017.14 1017.72 1017.53 1017.31 1017.80 1017.69 1017.81 1017.95 1017.80 1016.86 1016.62 1016.86 1016.88 1016.83 1016.72 1016.90 1017.66 1017.94 1018.36 1018.79 1019.46 1020.29
1016.20 1016.46 1016.88 1017.14 1017.23 1017.71 1017.97 1017.43 1016.51 1016.41 1016.31 1015.35 1015.38 1015.25 1014.91 1015.04 1015.58 1015.71 1015.63 1016.26 1016.66 1017.00 1017.26 1017.79 1017.34 1016.68 1017.09 1017.46 1017.84 1017.83 1017.85 1017.58 1017.04 1016.59 1017.04 1016.80 1016.35 1015.98 1016.16 1016.34 1016.31 1016.58 1017.45 1018.69 1019.98
1015.72 1015.87 1016.39 1016.69 1017.04 1017.63 1017.54 1016.67 1016.18 1016.05 1016.38 1014.90 1014.17 1013.98 1014.11 1014.68 1014.85 1015.10 1015.58 1015.91 1016.42 1017.02 1017.14 1017.10 1016.41 1016.07 1017.08 1017.37 1017.66 1017.68 1017.74 1017.68 1017.53 1017.09 1016.98 1016.87 1015.79 1015.53 1014.88 1014.71 1014.88 1015.26 1016.20 1017.64 1018.91
1015.31 1015.30 1015.75 1016.12 1017.33 1016.82 1016.71 1015.97 1015.99 1016.08 1016.20 1014.44 1013.68 1013.32 1013.57 1014.25 1014.81 1014.43 1014.73 1015.27 1016.14 1016.26 1016.89 1016.75 1016.18 1016.32 1016.90 1017.10 1017.28 1017.43 1017.30 1017.49 1017.79 1018.22 1017.99 1017.55 1014.93 1014.87 1014.39 1014.06 1014.30 1014.39 1015.60 1017.01 1018.66
1015.42 1014.63 1014.95 1015.36 1015.58 1016.19 1015.75 1015.55 1015.80 1016.27 1016.04 1013.95 1013.67 1013.60 1013.63 1014.21 1014.75 1015.18 1015.06 1015.11 1015.52 1015.98 1016.41 1015.72 1015.80 1016.13 1016.59 1016.57 1016.93 1017.27 1017.38 1017.92 1018.37 1018.72 1018.55 1018.41 1018.12 1013.49 1013.50 1013.62 1013.01 1014.04 1015.44 1016.60 1017.94
1015.42 1015.00 1015.02 1015.13 1015.32 1015.64 1015.59 1015.70 1016.50 1016.73 1015.18 1014.09 1013.97 1014.09 1014.52 1014.73 1015.07 1015.33 1015.42 1015.49 1015.61 1016.05 1015.99 1016.02 1015.83 1015.82 1015.90 1016.39 1016.61 1017.26 1018.10 1018.90 1019.38 1019.93 1019.13 1018.25 1018.13 1012.42 1012.89 1012.48 1012.66 1013.86 1015.38 1016.57 1017.95
1015.27 1014.81 1015.26 1015.12 1015.09 1015.44 1015.46 1016.01 1016.43 1015.49 1014.39 1013.92 1013.90 1014.32 1014.68 1015.08 1015.66 1015.51 1015.76 1016.00 1016.13 1016.65 1016.39 1016.17 1015.93 1015.98 1015.97 1016.74 1017.15 1017.53 1018.93 1020.28 1020.88 1021.11 1019.11 1017.66 1017.34 1013.21 1012.81 1012.36 1012.68 1013.86 1015.18 1016.53 1017.81
1015.29 1014.92 1014.82 1015.16 1015.25 1015.26 1015.32 1015.22 1015.20 1014.18 1013.58 1013.08 1013.35 1014.06 1014.64 1014.93 1015.37 1015.53 1015.98 1016.27 1016.21 1016.22 1016.32 1016.18 1015.69 1015.25 1015.59 1015.61 1016.43 1017.35 1018.38 1019.89 1020.57 1021.06 1019.96 1018.59 1016.23 1013.14 1012.33 1012.52 1012.75 1013.44 1014.49 1016.22 1017.62
1015.11 1014.90 1014.62 1014.82 1015.20 1015.32 1015.25 1014.32 1014.25 1013.72 1012.87 1012.71 1013.59 1013.65 1014.17 1014.41 1014.85 1015.52 1015.90 1015.71 1015.05 1015.39 1015.73 1015.40 1015.23 1015.01 1015.22 1015.42 1015.88 1017.48 1017.87 1018.07 1019.90 1021.48 1020.87 1018.01 1015.35 1013.10 1012.60 1013.00 1013.49 1014.07 1015.30 1016.44 1017.67
1014.79 1014.50 1013.99 1013.95 1014.62 1015.33 1015.20 1013.92 1013.69 1013.12 1012.66 1012.53 1012.86 1013.05 1013.47 1013.93 1014.49 1015.04 1015.14 1014.16 1014.15 1013.69 1014.20 1014.54 1015.22 1015.88 1015.94 1015.69 1016.18 1016.54 1017.02 1018.50 1019.71 1021.10 1020.43 1017.40 1015.51 1013.57 1013.04 1013.08 1013.93 1014.83 1015.45 1016.43 1017.61
1014.66 1014.12 1013.01 1013.45 1014.52 1014.81 1014.16 1013.44 1013.19 1012.34 1012.63 1012.91 1012.75 1012.60 1012.76 1013.60 1013.66 1014.04 1013.67 1013.03 1012.82 1013.13 1013.79 1014.52 1014.96 1016.52 1016.40 1016.01 1015.73 1016.81 1016.99 1017.41 1018.12 1019.21 1019.00 1017.51 1014.27 1013.09 1012.99 1013.12 1013.78 1014.37 1015.14 1016.20 1017.50
1014.03 1013.85 1013.03 1013.07 1014.03 1013.60 1012.77 1012.32 1012.72 1012.22 1012.41 1012.73 1012.70 1012.69 1012.50 1013.08 1013.49 1013.60 1013.15 1012.35 1012.05 1012.69 1013.76 1014.78 1015.62 1016.25 1015.82 1015.53 1015.55 1015.72 1016.10 1016.50 1016.80 1017.85 1017.83 1017.05 1012.58 1012.45 1012.60 1012.90 1013.65 1014.58 1015.60 1016.57 1017.35
1013.76 1013.02 1012.28 1012.59 1012.19 1012.30 1012.04 1011.79 1012.25 1011.84 1012.18 1012.21 1012.16 1012.09 1012.21 1012.61 1013.22 1013.05 1013.02 1012.35 1012.38 1012.82 1013.76 1014.60 1016.22 1016.32 1016.08 1016.08 1015.85 1015.76 1015.86 1015.74 1016.11 1016.09 1015.93 1016.29 1012.24 1011.99 1012.11 1012.48 1013.49 1014.73 1015.73 1016.61 1017.80
1014.20 1013.11 1012.39 1012.10 1011.34 1011.56 1011.82 1011.46 1011.44 1010.98 1011.59 1011.61 1011.49 1011.84 1012.08 1012.04 1012.25 1012.72 1012.90 1012.86 1012.89 1013.00 1013.62 1015.07 1016.03 1015.91 1014.99 1014.92 1015.11 1015.88 1015.52 1015.40 1015.67 1015.66 1014.93 1013.22 1012.72 1012.23 1012.24 1012.46 1013.22 1014.15 1015.04 1015.98 1016.73
1014.05 1012.62 1011.51 1011.68 1011.57 1011.13 1011.28 1011.03 1010.84 1010.68 1010.76 1010.97 1011.13 1010.81 1011.33 1011.94 1012.19 1012.42 1012.73 1013.06 1013.31 1013.56 1013.57 1014.80 1015.36 1015.73 1014.39 1014.50 1014.39 1014.90 1015.51 1015.06 1015.22 1014.52 1014.70 1012.42 1013.05 1011.42 1011.85 1011.95 1012.19 1012.97 1014.24 1015.35 1016.20
1013.53 1013.13 1012.06 1011.52 1011.28 1011.43 1011.07 1010.05 1010.29 1009.92 1010.00 1009.97 1010.17 1010.57 1011.28 1011.09 1010.91 1011.51 1012.20 1012.82 1012.72 1014.36 1014.28 1014.37 1014.71 1015.25 1014.59 1014.60 1014.69 1015.01 1014.72 1014.37 1014.22 1013.86 1013.55 1013.01 1011.90 1011.28 1011.24 1011.69 1012.06 1012.52 1013.31 1014.24 1014.69
1012.89 1012.91 1013.04 1011.87 1011.62 1011.42 1010.70 1010.65 1010.05 1009.94 1009.53 1009.48 1010.04 1010.90 1010.96 1010.93 1011.97 1011.69 1011.68 1011.89 1011.84 1013.14 1014.05 1014.52 1014.85 1015.39 1014.09 1013.85 1014.48 1014.10 1012.02 1012.81 1012.55 1012.59 1012.16 1012.22 1010.33 1010.01 1011.03 1011.39 1011.43 1011.96 1012.37 1012.87 1013.48
Wind_Speed
4 4 4 5 6 6 7 8 9 10 10 12 14 13 13 14 16 3 1 1 1 3 5 5 3 3 3 2 3 3 5 1 3 2 3 2 3 2 3 4 5 5 4 5 4
4 3 3 3 4 5 6 7 8 10 11 12 13 14 13 13 3 2 1 1 1 2 2 2 4 1 3 2 3 5 4 2 1 3 2 2 5 5 3 4 3 5 4 5 5
4 3 2 2 2 3 4 5 7 8 9 11 13 14 12 8 0 2 1 1 1 2 3 2 3 2 3 2 1 2 4 1 4 3 4 2 2 3 3 1 4 7 7 5 6
5 3 2 1 1 2 4 5 6 7 9 11 13 16 18 1 3 1 1 2 2 4 3 1 2 3 1 1 1 2 4 2 0 2 2 1 4 1 4 5 8 8 7 6 8
6 5 4 3 2 2 3 5 7 8 9 11 13 14 6 4 3 3 2 2 2 2 1 1 2 2 0 2 2 3 3 1 2 4 2 2 3 3 1 6 8 8 8 8 7
7 7 6 5 4 3 4 5 6 7 9 11 11 13 3 3 4 6 4 2 2 1 1 3 2 2 1 0 2 1 3 5 4 5 3 4 4 2 1 8 8 9 8 7 8
8 8 8 7 6 4 4 5 6 7 9 11 9 3 1 9 1 6 4 1 2 2 1 3 3 4 2 2 2 2 4 7 7 7 5 5 7 11 7 8 9 8 8 7 6
9 9 8 8 7 6 5 5 6 7 9 7 7 1 6 1 2 4 3 2 3 3 3 3 4 3 3 1 3 2 1 2 5 8 4 7 10 8 10 11 9 9 8 7 6
10 10 9 8 7 7 7 7 7 8 7 7 2 2 7 1 3 4 4 5 4 3 3 2 3 3 3 5 4 2 4 6 8 5 5 5 8 2 5 7 8 9 9 9 8
11 10 10 8 7 7 9 6 5 6 3 2 3 2 3 3 2 4 1 6 3 4 4 3 4 2 1 5 7 6 4 5 6 5 2 6 11 5 9 9 11 10 10 9 10
12 11 10 9 6 7 6 1 1 1 2 9 6 4 5 1 2 1 2 3 4 2 5 3 5 10 11 9 5 2 3 5 6 4 6 9 10 11 11 8 9 11 11 11 10
13 13 12 10 7 4 3 2 1 3 5 10 7 7 5 7 3 4 4 6 5 6 5 3 9 12 8 8 9 8 9 10 6 6 5 9 13 10 8 11 16 20 16 13 9
13 13 13 11 8 4 3 4 1 2 2 6 9 8 7 9 8 11 11 6 6 7 9 9 7 8 7 5 6 6 7 5 10 6 4 6 12 9 10 13 9 16 9 12 17
13 14 13 12 6 4 4 6 5 1 2 6 7 2 5 7 5 3 11 7 6 12 6 9 11 3 6 6 8 7 6 8 6 3 6 3 12 8 6 11 11 17 12 14 15
15 6 11 16 6 4 4 3 5 1 4 1 1 4 3 7 4 4 1 3 6 7 7 9 6 8 7 8 8 7 1 1 2 4 4 2 7 2 3 10 17 11 10 13 14
11 6 5 7 3 1 6 9 4 4 12 3 3 3 5 1 2 2 4 4 1 0 3 5 1 5 8 3 6 6 6 7 4 3 8 10 11 3 7 17 4 6 8 12 13
8 4 1 3 2 7 3 5 3 5 0 6 5 7 4 6 4 4 6 5 7 5 7 2 8 3 5 4 2 5 8 2 4 1 9 3 10 17 12 7 6 12 13 14 15
9 6 5 3 5 7 3 4 8 6 6 3 5 8 7 6 5 6 6 5 8 3 2 6 5 13 7 13 9 8 9 7 8 5 5 4 10 8 8 5 6 10 16 14 15
9 3 3 6 7 5 4 7 6 7 7 8 3 4 5 5 6 4 7 6 10 16 10 6 6 3 2 3 10 5 7 6 3 2 1 7 8 9 3 0 3 9 12 14 14
2 3 3 10 10 5 6 10 9 5 3 3 13 8 9 7 7 9 10 7 6 16 7 4 2 4 2 4 2 6 5 4 2 4 7 7 8 11 5 10 7 9 13 14 13
2 2 4 12 7 4 12 10 5 6 4 5 5 5 4 4 10 7 8 4 10 8 18 3 3 1 2 6 10 5 4 3 6 5 6 4 7 4 6 6 13 13 13 15 15
3 5 5 11 8 4 17 10 4 6 9 5 8 4 6 7 5 6 8 2 5 7 9 3 3 5 10 3 4 2 8 9 7 6 5 4 12 1 3 4 6 8 9 10 13
3 4 7 8 9 14 5 13 14 10 11 8 10 12 13 11 6 10 8 4 7 5 8 5 3 2 1 1 1 7 9 16 3 4 13 5 8 1 2 5 5 9 9 11 11
3 4 4 5 3 12 14 10 13 11 13 12 7 7 6 7 7 7 7 5 6 7 17 10 6 7 8 3 4 3 6 10 19 10 4 23 13 4 4 4 6 8 11 14 16
3 5 4 4 6 15 12 7 17 12 13 17 9 20 14 13 11 11 12 6 1 5 11 13 10 13 17 8 8 8 6 10 15 22 10 20 16 16 9 8 10 10 12 15 16
3 3 3 2 4 11 6 14 18 18 12 11 20 21 16 17 18 11 14 11 8 4 5 5 8 9 17 14 15 10 14 15 15 23 22 24 29 9 9 2 6 11 15 17 19
3 2 1 4 2 6 5 6 5 7 6 11 15 6 16 20 4 10 5 2 5 14 15 10 7 8 17 8 9 10 30 23 20 19 20 21 29 23 13 11 12 11 16 19 19
Wind_Direction
104 90 65 42 35 31 15 11 8 359 355 345 341 334 329 327 313 134 117 308 333 315 339 295 298 271 2 64 28 67 61 355 308 95 129 193 104 14 161 108 57 31 101 156 192
134 118 95 69 34 21 16 6 1 353 346 341 336 329 324 327 288 265 252 282 18 10 335 336 325 342 18 46 12 80 93 273 113 350 108 149 111 163 111 143 80 70 57 100 70
177 163 126 66 37 20 359 1 349 345 338 332 325 321 320 318 351 248 221 189 175 313 276 286 307 20 44 66 26 34 158 321 10 59 57 45 80 147 132 157 226 183 159 135 103
203 202 202 170 340 1 341 337 333 334 333 329 327 325 321 249 141 125 212 190 240 302 303 307 359 32 60 340 120 65 280 124 31 63 45 92 311 113 176 200 144 130 148 121 116
237 227 222 236 239 291 317 323 327 328 330 331 331 332 357 13 261 164 169 222 266 308 333 21 49 10 240 341 112 142 315 131 142 141 203 347 262 232 239 157 139 129 115 128 123
252 249 245 239 244 268 295 312 321 324 325 330 332 327 22 280 128 147 163 167 276 338 332 46 71 160 4 352 122 300 334 289 270 215 208 185 259 150 291 154 151 141 140 133 130
242 249 251 251 258 263 283 303 312 315 319 323 331 333 344 237 94 141 165 52 35 56 69 54 42 81 358 330 342 6 328 315 242 204 219 141 289 235 176 165 159 159 153 144 149
231 240 248 256 260 266 277 289 298 304 309 309 321 315 244 358 334 129 141 40 46 48 89 21 45 95 79 256 353 321 347 333 274 150 204 119 267 268 170 155 180 179 179 167 169
220 230 236 243 257 270 277 282 290 294 291 298 337 146 266 319 144 222 154 146 99 54 47 60 72 131 67 99 7 331 244 226 308 171 128 160 257 240 175 172 196 197 192 182 171
214 221 225 235 250 267 281 273 292 324 261 254 276 17 243 196 147 133 128 149 131 118 62 81 63 99 79 112 224 206 226 259 240 232 169 189 255 242 205 191 211 211 199 189 177
205 212 220 212 236 270 317 294 69 9 253 195 186 218 130 87 20 141 173 129 104 107 158 211 122 212 194 198 207 253 219 247 272 258 163 223 237 236 217 220 218 221 208 192 173
210 205 211 206 190 230 299 243 250 167 301 239 237 246 170 173 124 203 146 147 156 195 147 93 222 222 177 199 215 241 254 267 296 219 195 263 252 247 205 216 215 215 209 181 150
209 205 204 191 162 144 224 238 117 61 250 268 200 199 186 151 203 193 159 169 179 181 195 181 225 195 194 221 196 215 214 236 237 302 241 292 268 245 245 221 225 229 198 174 163
231 202 201 155 141 172 214 235 228 83 294 249 213 176 110 128 243 167 185 156 194 203 192 231 240 206 163 194 181 237 217 227 250 296 250 128 289 269 236 249 218 226 185 163 166
296 278 181 160 138 180 163 184 139 66 295 277 87 310 147 161 134 19 17 57 171 186 148 232 177 191 204 209 172 225 132 117 231 228 311 123 301 336 228 254 245 204 176 161 163
276 305 290 192 124 190 143 99 64 114 228 191 102 119 104 61 73 85 100 34 164 30 299 225 347 154 192 81 157 132 67 38 40 51 270 190 195 333 211 240 311 147 169 158 152
285 220 258 147 195 169 164 102 176 190 35 187 176 164 180 161 162 148 152 165 172 135 228 236 221 211 133 120 57 107 100 304 339 304 243 289 212 253 288 253 208 183 171 162 157
289 221 197 260 154 161 130 170 210 204 209 147 125 135 178 148 199 161 142 186 242 215 105 173 270 169 188 199 174 175 150 161 220 219 272 332 236 248 227 313 275 181 173 154 152
310 214 197 174 167 160 237 210 199 211 193 140 98 149 200 174 133 127 194 214 197 192 190 195 258 50 66 147 141 200 198 170 78 37 339 229 284 299 193 236 118 140 150 159 157
286 213 219 150 156 180 227 257 210 222 55 128 199 179 185 190 153 173 178 215 216 190 201 229 217 3 333 84 14 151 170 97 96 209 251 275 259 238 242 225 181 167 173 170 155
228 252 219 148 139 180 219 222 196 222 157 174 222 184 182 172 197 198 192 247 195 179 190 206 155 288 132 201 179 137 216 191 130 173 199 285 258 254 298 221 202 194 181 168 164
236 225 166 146 189 203 225 185 206 184 215 189 172 232 196 161 213 223 220 190 146 137 166 191 74 190 211 254 229 243 202 189 177 212 227 174 249 120 327 314 196 182 173 169 165
251 218 174 183 196 207 212 220 221 188 204 196 202 208 204 200 218 205 213 227 149 127 151 156 217 203 309 9 321 210 207 214 169 78 220 184 255 70 50 108 149 150 162 163 155
281 229 200 245 214 211 219 222 214 208 225 211 180 170 187 201 217 196 212 214 202 140 138 138 179 218 228 145 114 190 224 219 217 223 165 230 264 213 204 142 173 176 170 170 170
226 252 199 196 257 216 193 207 213 218 207 196 217 217 198 219 205 222 212 197 66 211 165 168 208 208 234 217 160 174 219 202 213 233 215 257 240 255 255 261 216 184 168 173 180
214 215 313 284 223 228 262 214 218 218 183 211 220 218 220 224 214 216 219 192 182 196 169 171 224 191 249 236 229 234 228 222 226 237 241 251 262 225 255 212 173 185 180 189 188
210 139 297 235 235 249 212 186 239 227 222 228 214 226 213 225 290 272 177 137 174 177 185 168 171 187 248 178 190 229 230 223 226 222 215 229 241 256 252 238 234 201 188 191 192